sat.trackr.live / text

‹ back to catalog

STARLINK-5022

NORAD 53903 · 2022-119T

PAYLOAD ACTIVE UNKNOWN

§ Identity

Operator
Country
US
Launch date
2022-09-24
Launch site
AFETR
Launch vehicle
Mass (kg)
RCS (m²)

Purposes: comms

External: N2YO · Heavens-Above · Gunter

§ Orbital elements

Epoch: 2026-09-20T10:12:58.180032Z

Period
94.01 min
Inclination
53.1591°
Eccentricity
0.0001007
Mean motion
15.31704988 rev/d
Perigee alt
470.0 km
Apogee alt
471.4 km
Semi-major
6,848.9 km
B*
-9.7612e-6
RAAN
160.1060°
Arg perigee
91.0566°
Mean anomaly
269.0551°
Rev number
22,121

§ Raw data

STARLINK-50221 53903U 22119T   26263.42567338 -.00000668  00000+0 -97612-5 0  99932 53903  53.1591 160.1060 0001007  91.0566 269.0551 15.31704988221217

JSON: /api/v1/satellites/53903 · /tle

For live sub-satellite position, see the globe view (requires WebGL).

§ Visibility from observer

Set your observer location to see the next 7 days of passes ≥ 10°. The values pass through the URL so the page stays shareable.

No JS? Fill the form by hand. The geolocation button needs JavaScript.